M I D A S
Marine Information and Data Acquisition System
Tripno 1993 of the Zeeleeuw from 2010-07-06 06:52:40 to 2010-07-06 13:51:27
Back to CruiseResearch ActivitiesStationsMapUnderway DataData graphs

EquipmentUnitsComments
TimeDGPSUTC
LatitudeDGPSDM.mWGS84
LongitudeDGPSDM.mWGS84
SpeedMeteo Stationm/sRelative wind speed
DirectionMeteo StationdegRelative wind direction
TemperatureMeteo Stationdeg CelciusAir temperature
PressureMeteo StationPaAtmospheric pressure
HumidityMeteo Station%Relative humidity
Missing or incorrect values are displayed as -999
Metereological data collected by the RV Zeeleeuw from 2010-07-06 06:44:44 to 2010-07-06 13:54:39
Time Latitude Longitude Speed Direction Temperature Pressure Humidity
2010-07-06 06:45 51°13.675 2°55.91 5.8 27 16.7 102490 41
2010-07-06 06:46 51°13.708 2°55.816 4.2 24 16.6 102490 40
2010-07-06 06:47 51°13.749 2°55.748 4 24 16.6 102490 42
2010-07-06 06:48 51°13.797 2°55.677 3.7 25 16.6 102490 41
2010-07-06 06:49 51°13.869 2°55.64 4.2 23 16.7 102480 42
2010-07-06 06:50 51°13.937 2°55.667 4.2 42 16.6 102480 41
2010-07-06 06:51 51°13.94 2°55.643 4.5 5 16.6 102480 42
2010-07-06 06:52 51°13.989 2°55.549 7.8 333 16.6 102480 42
2010-07-06 06:53 51°14.105 2°55.439 9.3 331 16.5 102470 41
2010-07-06 06:54 51°14.25 2°55.317 9.4 335 16.4 102470 41
2010-07-06 06:55 51°14.399 2°55.177 10.2 331 16.4 102470 41
2010-07-06 06:56 51°14.556 2°55.037 10.5 335 16.4 102460 42
2010-07-06 06:57 51°14.723 2°54.864 9.3 339 16.4 102460 43
2010-07-06 06:58 51°14.896 2°54.654 10.4 340 16.4 102460 41
2010-07-06 06:59 51°15.072 2°54.441 11.4 338 16.4 102460 42
2010-07-06 07:00 51°15.254 2°54.238 12.5 336 16.3 102450 42
2010-07-06 07:01 51°15.437 2°54.039 12.5 339 16.3 102460 42
2010-07-06 07:02 51°15.609 2°53.819 10.9 339 16.3 102460 42
2010-07-06 07:03 51°15.779 2°53.597 13.9 342 16.3 102460 43
2010-07-06 07:04 51°15.966 2°53.411 14.2 335 16.3 102450 42
2010-07-06 07:05 51°16.178 2°53.288 14.6 334 16.3 102450 43
2010-07-06 07:06 51°16.389 2°53.163 12.8 335 16.2 102440 42
2010-07-06 07:07 51°16.598 2°53.034 10.6 334 16.2 102450 42
2010-07-06 07:08 51°16.805 2°52.903 10.8 336 16.1 102460 42
2010-07-06 07:09 51°17.013 2°52.768 13.2 336 16.1 102460 42
2010-07-06 07:10 51°17.229 2°52.659 13 330 16.2 102460 42
2010-07-06 07:11 51°17.458 2°52.616 10.6 328 16.1 102450 42
2010-07-06 07:12 51°17.687 2°52.571 10.8 329 16.2 102460 42
2010-07-06 07:13 51°17.917 2°52.537 12.3 328 16.1 102450 42
2010-07-06 07:14 51°18.145 2°52.548 14.1 327 16 102460 43
2010-07-06 07:15 51°18.38 2°52.562 12.2 328 16 102450 42
2010-07-06 07:16 51°18.612 2°52.574 13.9 328 16 102460 42
2010-07-06 07:17 51°18.843 2°52.584 12.5 329 16 102460 42
2010-07-06 07:18 51°19.076 2°52.592 11.4 327 16 102470 43
2010-07-06 07:19 51°19.31 2°52.614 13.4 327 16 102470 43
2010-07-06 07:20 51°19.546 2°52.662 11.3 326 16.1 102460 44
2010-07-06 07:21 51°19.782 2°52.71 11.2 327 16.1 102460 43
2010-07-06 07:22 51°20.02 2°52.755 13.1 326 16 102460 42
2010-07-06 07:23 51°20.254 2°52.804 13.9 325 16 102450 43
2010-07-06 07:24 51°20.485 2°52.88 13.1 323 16 102460 42
2010-07-06 07:25 51°20.716 2°52.953 13.3 323 16 102460 42
2010-07-06 07:26 51°20.946 2°53.025 11.3 325 16.1 102470 43
2010-07-06 07:27 51°21.177 2°53.094 13.8 324 16.1 102470 42
2010-07-06 07:28 51°21.403 2°53.161 11.3 324 16.1 102470 42
2010-07-06 07:29 51°21.638 2°53.231 11.7 322 16.1 102470 43
2010-07-06 07:30 51°21.865 2°53.328 14 322 16.1 102460 43
2010-07-06 07:31 51°22.091 2°53.432 11.8 321 16.1 102460 43
2010-07-06 07:32 51°22.318 2°53.528 12.7 323 16 102470 42
2010-07-06 07:33 51°22.55 2°53.568 14.6 325 16 102470 42
2010-07-06 07:34 51°22.783 2°53.586 11.9 326 16 102480 42
2010-07-06 07:35 51°23.01 2°53.559 11.3 330 15.9 102490 43
2010-07-06 07:36 51°23.247 2°53.536 13.8 330 15.8 102490 43
2010-07-06 07:37 51°23.482 2°53.514 13.9 328 15.8 102500 42
2010-07-06 07:38 51°23.715 2°53.495 13.6 329 15.8 102490 42
2010-07-06 07:39 51°23.956 2°53.476 12.9 329 15.7 102490 42
2010-07-06 07:40 51°24.194 2°53.453 12 328 15.7 102490 43
2010-07-06 07:41 51°24.431 2°53.43 12.9 327 15.7 102500 42
2010-07-06 07:42 51°24.664 2°53.408 13.8 328 15.7 102500 43
2010-07-06 07:43 51°24.906 2°53.382 12.4 327 15.7 102500 43
2010-07-06 07:44 51°25.147 2°53.355 13.1 327 15.7 102490 43
2010-07-06 07:45 51°25.381 2°53.325 11.3 327 15.6 102500 43
2010-07-06 07:46 51°25.616 2°53.296 12.8 329 15.6 102500 43
2010-07-06 07:47 51°25.849 2°53.266 13.3 327 15.6 102500 43
2010-07-06 07:48 51°26.084 2°53.236 13 327 15.7 102500 42
2010-07-06 07:49 51°26.319 2°53.204 12.8 276 15.6 102500 42
2010-07-06 07:50 51°26.552 2°53.171 11.3 282 15.5 102510 43
2010-07-06 07:51 51°26.789 2°53.132 13.8 280 15.6 102510 42
2010-07-06 07:52 51°27.019 2°53.094 12.2 276 15.6 102500 43
2010-07-06 07:53 51°27.254 2°53.055 12.2 282 15.5 102500 42
2010-07-06 07:54 51°27.49 2°53.023 13.4 283 15.5 102500 43
2010-07-06 07:55 51°27.727 2°52.988 10.2 280 15.5 102520 43
2010-07-06 07:56 51°27.963 2°52.958 11.2 280 15.5 102510 42
2010-07-06 07:57 51°28.202 2°52.928 14.7 277 15.5 102510 43
2010-07-06 07:58 51°28.442 2°52.897 13.2 330 15.4 102510 42
2010-07-06 07:59 51°28.68 2°52.868 11.5 281 15.4 102500 43
2010-07-06 08:00 51°28.917 2°52.836 13.9 284 15.4 102500 42
2010-07-06 08:01 51°29.155 2°52.808 10.8 277 15.4 102500 42
2010-07-06 08:02 51°29.393 2°52.794 10.9 281 15.5 102490 43
2010-07-06 08:03 51°29.629 2°52.826 11.8 279 15.4 102490 43
2010-07-06 08:04 51°29.862 2°52.836 13.1 278 15.4 102500 42
2010-07-06 08:05 51°30.102 2°52.844 11.8 281 15.4 102490 42
2010-07-06 08:06 51°30.335 2°52.857 12.8 278 15.4 102490 43
2010-07-06 08:07 51°30.581 2°52.863 11.5 282 15.4 102500 43
2010-07-06 08:08 51°30.825 2°52.874 12.2 279 15.4 102500 42
2010-07-06 08:09 51°31.056 2°52.83 12 330 15.4 102500 43
2010-07-06 08:10 51°31.224 2°52.742 8.6 338 15.3 102510 42
2010-07-06 08:11 51°31.282 2°52.67 5.8 352 15.2 102520 42
2010-07-06 08:12 51°31.306 2°52.621 4.9 4 15.2 102530 44
2010-07-06 08:13 51°31.317 2°52.653 4.1 15 15.1 102530 43
2010-07-06 08:14 51°31.332 2°52.698 4.4 22 15.2 102530 43
2010-07-06 08:15 51°31.336 2°52.702 4.7 16 15.2 102530 44
2010-07-06 08:16 51°31.336 2°52.694 5.1 16 15.2 102530 43
2010-07-06 08:17 51°31.338 2°52.694 5.3 17 15.2 102530 43
2010-07-06 08:18 51°31.34 2°52.697 3.9 16 15.2 102530 44
2010-07-06 08:19 51°31.341 2°52.694 4.3 12 15.2 102530 43
2010-07-06 08:20 51°31.343 2°52.689 5.4 14 15.2 102530 44
2010-07-06 08:21 51°31.345 2°52.688 4.4 14 15.2 102530 41
2010-07-06 08:22 51°31.346 2°52.686 4.4 15 15.1 102530 41
2010-07-06 08:23 51°31.346 2°52.682 4.2 18 15.2 102530 42
2010-07-06 08:24 51°31.347 2°52.68 4.9 22 15.2 102530 42
2010-07-06 08:25 51°31.347 2°52.68 3.6 21 15.2 102530 42
2010-07-06 08:26 51°31.347 2°52.68 3.8 19 15.2 102520 41
2010-07-06 08:27 51°31.347 2°52.681 4.5 20 15.3 102530 41
2010-07-06 08:28 51°31.347 2°52.68 4.2 18 15.3 102530 43
2010-07-06 08:29 51°31.347 2°52.68 3.6 18 15.3 102530 41
2010-07-06 08:30 51°31.347 2°52.678 3.3 18 15.4 102530 41
2010-07-06 08:31 51°31.347 2°52.675 3.9 20 15.4 102530 43
2010-07-06 08:32 51°31.348 2°52.673 3.5 24 15.3 102530 41
2010-07-06 08:33 51°31.348 2°52.673 3.7 22 15.3 102520 41
2010-07-06 08:34 51°31.349 2°52.675 4.1 22 15.4 102520 41
2010-07-06 08:35 51°31.349 2°52.676 4.5 22 15.4 102530 43
2010-07-06 08:36 51°31.348 2°52.676 3.6 23 15.4 102530 43
2010-07-06 08:37 51°31.348 2°52.676 5.1 22 15.4 102530 41
2010-07-06 08:38 51°31.348 2°52.675 3.4 19 15.4 102530 41
2010-07-06 08:39 51°31.348 2°52.676 4.2 24 15.5 102530 43
2010-07-06 08:40 51°31.349 2°52.676 4 23 15.4 102540 42
2010-07-06 08:41 51°31.349 2°52.676 3.8 22 15.4 102530 43
2010-07-06 08:42 51°31.349 2°52.675 4 21 15.5 102540 42
2010-07-06 08:43 51°31.349 2°52.674 3.7 24 15.5 102540 42
2010-07-06 08:44 51°31.349 2°52.672 4.3 18 15.5 102530 42
2010-07-06 08:45 51°31.349 2°52.672 4.7 20 15.5 102540 43
2010-07-06 08:46 51°31.35 2°52.67 4.5 25 15.4 102540 41
2010-07-06 08:47 51°31.35 2°52.668 3.7 21 15.4 102540 41
2010-07-06 08:48 51°31.35 2°52.665 3.9 22 15.4 102530 41
2010-07-06 08:49 51°31.35 2°52.665 4.3 23 15.4 102530 41
2010-07-06 08:50 51°31.351 2°52.665 4.4 24 15.3 102540 43
2010-07-06 08:51 51°31.351 2°52.665 3.7 24 15.4 102540 43
2010-07-06 08:52 51°31.351 2°52.663 4.1 18 15.3 102540 43
2010-07-06 08:53 51°31.351 2°52.662 4.3 21 15.3 102540 41
2010-07-06 08:54 51°31.347 2°52.649 4 22 15.3 102540 43
2010-07-06 08:55 51°31.337 2°52.632 3.8 25 15.3 102540 41
2010-07-06 08:56 51°31.323 2°52.628 3.1 32 15.3 102540 42
2010-07-06 08:58 51°31.311 2°52.609 3.6 13 15.3 102540 41
2010-07-06 08:59 51°31.337 2°52.531 6.2 337 15.3 102540 41
2010-07-06 09:00 51°31.442 2°52.572 6.6 35 15.3 102530 41
2010-07-06 09:01 51°31.562 2°52.82 7.7 316 15.3 102520 41
2010-07-06 09:02 51°31.705 2°53.12 7.7 315 15.3 102520 42
2010-07-06 09:03 51°31.862 2°53.42 10 316 15.3 102520 41
2010-07-06 09:04 51°32.025 2°53.714 10 36 15.3 102520 41
2010-07-06 09:05 51°32.188 2°54.008 10 39 15.3 102510 42
2010-07-06 09:06 51°32.331 2°54.318 7.4 35 15.3 102520 41
2010-07-06 09:07 51°32.441 2°54.67 6.8 33 15.3 102530 42
2010-07-06 09:08 51°32.509 2°55.042 6.1 33 15.3 102530 41
2010-07-06 09:09 51°32.587 2°55.363 5.7 35 15.3 102540 43
2010-07-06 09:10 51°32.628 2°55.513 2.7 260 15.4 102540 43
2010-07-06 09:11 51°32.643 2°55.584 3.2 266 15.5 102550 43
2010-07-06 09:12 51°32.651 2°55.647 2.2 263 15.5 102550 39
2010-07-06 09:13 51°32.661 2°55.703 2.6 265 15.5 102550 41
2010-07-06 09:14 51°32.671 2°55.752 2.9 266 15.5 102550 42
2010-07-06 09:15 51°32.684 2°55.798 1.2 265 15.5 102550 42
2010-07-06 09:16 51°32.696 2°55.84 1.3 262 15.5 102550 40
2010-07-06 09:17 51°32.705 2°55.854 1.5 266 15.5 102550 43
2010-07-06 09:18 51°32.712 2°55.861 2.4 40 15.5 102550 41
2010-07-06 09:19 51°32.721 2°55.869 3.7 269 15.5 102550 41
2010-07-06 09:20 51°32.741 2°55.929 2.5 235 15.5 102550 41
2010-07-06 09:21 51°32.811 2°55.971 5.6 322 15.5 102550 41
2010-07-06 09:22 51°32.883 2°55.979 5.2 321 15.6 102550 43
2010-07-06 09:23 51°32.901 2°55.999 2.4 236 15.6 102560 41
2010-07-06 09:24 51°32.907 2°56.016 3.7 249 15.6 102550 41
2010-07-06 09:25 51°32.914 2°56.036 3.7 251 15.8 102560 43
2010-07-06 09:26 51°32.922 2°56.059 4.4 251 15.9 102560 43
2010-07-06 09:27 51°32.93 2°56.082 4 257 15.9 102560 41
2010-07-06 09:28 51°32.937 2°56.104 3.4 260 15.9 102570 39
2010-07-06 09:29 51°32.942 2°56.12 2.3 269 16 102570 41
2010-07-06 09:30 51°32.948 2°56.131 3.3 36 16 102570 40
2010-07-06 09:31 51°32.954 2°56.14 4.3 40 15.8 102580 41
2010-07-06 09:32 51°32.962 2°56.147 3.4 33 15.6 102580 41
2010-07-06 09:33 51°32.969 2°56.16 4.6 40 15.6 102570 41
2010-07-06 09:34 51°32.974 2°56.18 4.2 32 15.5 102580 43
2010-07-06 09:35 51°32.978 2°56.201 3.6 40 15.4 102580 41
2010-07-06 09:36 51°32.981 2°56.226 3.3 39 15.4 102580 40
2010-07-06 09:37 51°32.984 2°56.256 2.8 35 15.3 102580 43
2010-07-06 09:38 51°32.95 2°56.315 2 29 15.3 102580 42
2010-07-06 09:39 51°32.91 2°56.279 4 10 15.4 102570 42
2010-07-06 09:40 51°32.902 2°56.243 2.7 6 15.4 102570 41
2010-07-06 09:41 51°32.903 2°56.222 2.9 7 15.3 102570 41
2010-07-06 09:42 51°32.907 2°56.213 4.4 9 15.3 102570 42
2010-07-06 09:43 51°32.912 2°56.213 3 6 15.2 102580 44
2010-07-06 09:44 51°32.918 2°56.219 3.7 14 15.1 102570 41
2010-07-06 09:45 51°32.925 2°56.229 3.5 8 15.1 102580 41
2010-07-06 09:46 51°32.931 2°56.242 2.7 5 15.3 102580 42
2010-07-06 09:47 51°32.937 2°56.256 2.4 5 15.3 102580 42
2010-07-06 09:48 51°32.941 2°56.274 3.8 10 15.3 102580 43
2010-07-06 09:49 51°32.945 2°56.295 2.6 19 15.2 102580 43
2010-07-06 09:50 51°32.95 2°56.317 3.2 12 15.2 102590 43
2010-07-06 09:51 51°32.954 2°56.342 3 26 15.3 102590 41
2010-07-06 09:52 51°32.959 2°56.369 3.5 28 15.3 102580 42
2010-07-06 09:53 51°32.963 2°56.395 2.7 27 15.3 102590 41
2010-07-06 09:54 51°32.969 2°56.42 3.6 32 15.4 102590 41
2010-07-06 09:55 51°32.973 2°56.446 3.3 27 15.4 102590 41
2010-07-06 09:56 51°32.978 2°56.471 3.8 31 15.4 102590 43
2010-07-06 09:57 51°32.983 2°56.496 3.4 33 15.3 102590 43
2010-07-06 09:58 51°32.989 2°56.521 3.5 31 15.3 102590 41
2010-07-06 09:59 51°32.995 2°56.546 2.8 25 15.3 102590 41
2010-07-06 10:00 51°33.001 2°56.57 3 27 15.3 102590 42
2010-07-06 10:01 51°33.007 2°56.594 3.3 26 15.3 102590 43
2010-07-06 10:02 51°33.012 2°56.618 3.1 25 15.3 102590 42
2010-07-06 10:03 51°33.018 2°56.642 3.3 23 15.3 102590 41
2010-07-06 10:04 51°33.024 2°56.667 2.7 32 15.3 102590 44
2010-07-06 10:05 51°33.03 2°56.69 3 28 15.2 102590 41
2010-07-06 10:06 51°33.035 2°56.714 3.7 28 15.2 102590 41
2010-07-06 10:07 51°33.041 2°56.737 2.6 27 15.3 102590 43
2010-07-06 10:08 51°33.047 2°56.761 3.2 22 15.3 102580 43
2010-07-06 10:09 51°33.053 2°56.785 2.6 28 15.3 102580 41
2010-07-06 10:10 51°33.059 2°56.809 2.6 31 15.3 102580 43
2010-07-06 10:11 51°33.064 2°56.834 2.9 30 15.3 102590 44
2010-07-06 10:12 51°33.07 2°56.859 3 25 15.3 102590 42
2010-07-06 10:13 51°33.075 2°56.884 2.9 31 15.4 102590 41
2010-07-06 10:14 51°33.079 2°56.91 3.6 30 15.3 102590 41
2010-07-06 10:15 51°33.084 2°56.935 3 28 15.2 102590 41
2010-07-06 10:16 51°33.089 2°56.96 3.3 32 15.2 102590 39
2010-07-06 10:17 51°33.093 2°56.984 3.2 32 15.2 102590 43
2010-07-06 10:18 51°33.099 2°57.008 2.6 31 15.2 102590 43
2010-07-06 10:19 51°33.102 2°57.032 3.1 30 15.3 102590 41
2010-07-06 10:20 51°33.109 2°57.057 2.6 30 15.2 102580 41
2010-07-06 10:21 51°33.113 2°57.081 2.6 27 15.3 102590 41
2010-07-06 10:22 51°33.117 2°57.104 2.5 28 15.3 102590 41
2010-07-06 10:23 51°33.12 2°57.128 3.2 30 15.3 102590 42
2010-07-06 10:24 51°33.125 2°57.151 2.9 27 15.3 102580 40
2010-07-06 10:25 51°33.1 2°57.069 5 353 15.3 102580 43
2010-07-06 10:26 51°33.108 2°56.848 5.6 345 15.2 102570 42
2010-07-06 10:27 51°33.123 2°56.602 6.9 343 15.2 102570 43
2010-07-06 10:28 51°33.138 2°56.352 6.7 345 15.2 102570 42
2010-07-06 10:29 51°33.145 2°56.117 5.8 346 15.2 102560 43
2010-07-06 10:30 51°33.121 2°55.967 3 4 15.1 102570 43
2010-07-06 10:31 51°33.104 2°55.919 2.5 9 15.1 102590 43
2010-07-06 10:32 51°33.107 2°55.926 1.3 7 15.1 102580 40
2010-07-06 10:33 51°33.109 2°55.939 2.8 359 15.2 102580 44
2010-07-06 10:34 51°33.111 2°55.953 1.9 3 15.2 102590 41
2010-07-06 10:35 51°33.112 2°55.969 2.8 14 15.2 102590 41
2010-07-06 10:36 51°33.113 2°55.986 2.3 22 15.2 102590 43
2010-07-06 10:37 51°33.114 2°56.004 2.2 27 15.2 102590 44
2010-07-06 10:38 51°33.115 2°56.023 2.5 19 15.3 102600 41
2010-07-06 10:39 51°33.102 2°55.989 3.3 354 15.4 102600 41
2010-07-06 10:40 51°33.081 2°55.869 3.4 353 15.3 102590 40
2010-07-06 10:41 51°33.072 2°55.812 1.5 358 15.2 102590 41
2010-07-06 10:42 51°33.07 2°55.778 1.3 360 15.1 102590 41
2010-07-06 10:43 51°33.07 2°55.754 2.5 356 15.1 102590 41
2010-07-06 10:44 51°33.07 2°55.739 1.9 360 15.1 102580 44
2010-07-06 10:45 51°33.072 2°55.731 1.6 6 15.1 102590 41
2010-07-06 10:46 51°33.07 2°55.728 1.1 6 15.1 102590 41
2010-07-06 10:47 51°33.07 2°55.73 2.1 3 15.1 102580 44
2010-07-06 10:48 51°33.071 2°55.732 1.9 4 15.1 102580 43
2010-07-06 10:49 51°33.071 2°55.735 0.9 8 15.1 102570 43
2010-07-06 10:50 51°33.072 2°55.739 1.1 358 15.1 102580 42
2010-07-06 10:51 51°33.073 2°55.744 1.2 358 15.1 102580 42
2010-07-06 10:52 51°33.073 2°55.752 2.1 2 15.2 102580 44
2010-07-06 10:53 51°33.072 2°55.758 1.9 4 15.1 102580 41
2010-07-06 10:54 51°33.072 2°55.766 2.2 13 15.1 102580 43
2010-07-06 10:55 51°33.07 2°55.776 1.9 16 15.2 102580 44
2010-07-06 10:56 51°33.069 2°55.787 1 20 15.2 102580 43
2010-07-06 10:57 51°33.067 2°55.797 1.4 15 15.3 102580 42
2010-07-06 10:58 51°33.065 2°55.806 2.1 16 15.4 102580 41
2010-07-06 10:59 51°33.063 2°55.815 1.5 19 15.4 102580 44
2010-07-06 11:00 51°33.06 2°55.822 1 20 15.4 102580 43
2010-07-06 11:01 51°33.057 2°55.829 1.6 13 15.4 102580 44
2010-07-06 11:02 51°33.054 2°55.835 2.1 9 15.5 102580 44
2010-07-06 11:03 51°33.051 2°55.84 1.6 15 15.5 102580 44
2010-07-06 11:04 51°33.047 2°55.845 1.5 10 15.5 102580 40
2010-07-06 11:05 51°33.043 2°55.85 3.6 12 15.4 102580 41
2010-07-06 11:06 51°33.041 2°55.854 2.5 20 15.6 102580 44
2010-07-06 11:07 51°33.036 2°55.859 1.7 22 15.5 102580 42
2010-07-06 11:08 51°33.032 2°55.863 2.6 13 15.5 102590 42
2010-07-06 11:09 51°33.028 2°55.867 2 12 15.5 102590 43
2010-07-06 11:10 51°33.024 2°55.872 1.7 17 15.4 102590 43
2010-07-06 11:11 51°33.019 2°55.877 2.7 11 15.4 102590 42
2010-07-06 11:12 51°33.015 2°55.881 2.2 17 15.4 102590 40
2010-07-06 11:13 51°33.01 2°55.886 2 15 15.4 102590 41
2010-07-06 11:14 51°33.005 2°55.892 2.6 21 15.4 102590 43
2010-07-06 11:15 51°32.989 2°55.883 1.5 25 15.4 102590 40
2010-07-06 11:16 51°32.93 2°55.901 0.2 42 15.4 102590 41
2010-07-06 11:17 51°32.849 2°55.926 2.4 11 15.5 102590 42
2010-07-06 11:18 51°32.776 2°55.859 3.3 358 15.5 102580 40
2010-07-06 11:19 51°32.748 2°55.77 2.5 357 15.4 102580 40
2010-07-06 11:20 51°32.745 2°55.736 2.1 346 15.3 102590 39
2010-07-06 11:21 51°32.746 2°55.716 2.3 342 15.3 102590 43
2010-07-06 11:22 51°32.747 2°55.701 2.5 352 15.4 102590 43
2010-07-06 11:23 51°32.748 2°55.691 2.3 349 15.4 102580 41
2010-07-06 11:24 51°32.748 2°55.683 1.3 342 15.3 102580 43
2010-07-06 11:25 51°32.746 2°55.679 1.6 348 15.3 102580 43
2010-07-06 11:26 51°32.743 2°55.676 1.8 353 15.4 102580 41
2010-07-06 11:27 51°32.739 2°55.675 2.3 355 15.5 102590 43
2010-07-06 11:28 51°32.733 2°55.676 2.5 357 15.4 102590 40
2010-07-06 11:29 51°32.728 2°55.679 1.8 7 15.4 102590 41
2010-07-06 11:30 51°32.723 2°55.682 2.3 16 15.3 102590 43
2010-07-06 11:31 51°32.718 2°55.687 1.8 25 15.4 102590 41
2010-07-06 11:32 51°32.715 2°55.692 1.7 28 15.5 102590 43
2010-07-06 11:33 51°32.711 2°55.697 1 34 15.5 102590 41
2010-07-06 11:34 51°32.708 2°55.703 2.4 30 15.6 102580 41
2010-07-06 11:35 51°32.704 2°55.71 2.3 31 15.6 102580 41
2010-07-06 11:36 51°32.7 2°55.716 1.8 41 15.5 102580 42
2010-07-06 11:37 51°32.698 2°55.722 2 30 15.5 102580 41
2010-07-06 11:38 51°32.695 2°55.728 2.2 34 15.6 102580 43
2010-07-06 11:39 51°32.691 2°55.734 3 30 15.5 102580 43
2010-07-06 11:40 51°32.688 2°55.74 2.9 33 15.5 102580 42
2010-07-06 11:41 51°32.684 2°55.746 2.4 33 15.5 102590 40
2010-07-06 11:42 51°32.68 2°55.753 2.1 39 15.5 102590 41
2010-07-06 11:43 51°32.676 2°55.759 1 37 15.5 102580 41
2010-07-06 11:44 51°32.673 2°55.765 2.3 35 15.5 102580 40
2010-07-06 11:45 51°32.668 2°55.77 1.9 34 15.5 102580 41
2010-07-06 11:46 51°32.662 2°55.774 0.9 33 15.5 102590 41
2010-07-06 11:47 51°32.656 2°55.778 2 32 15.6 102590 41
2010-07-06 11:48 51°32.65 2°55.781 2.4 33 15.6 102590 43
2010-07-06 11:49 51°32.643 2°55.785 2.2 30 15.6 102590 43
2010-07-06 11:50 51°32.637 2°55.789 2 29 15.6 102590 43
2010-07-06 11:51 51°32.63 2°55.792 0.8 29 15.6 102590 40
2010-07-06 11:52 51°32.623 2°55.795 2.6 28 15.5 102590 41
2010-07-06 11:53 51°32.615 2°55.797 2.2 20 15.6 102600 42
2010-07-06 11:54 51°32.608 2°55.799 1.5 21 15.6 102600 41
2010-07-06 11:55 51°32.592 2°55.781 2.4 8 15.7 102600 41
2010-07-06 11:56 51°32.58 2°55.711 3 346 15.6 102590 42
2010-07-06 11:57 51°32.594 2°55.631 3.1 339 15.6 102590 43
2010-07-06 11:58 51°32.625 2°55.549 3.3 343 15.6 102590 42
2010-07-06 11:59 51°32.67 2°55.483 3.2 330 15.7 102600 41
2010-07-06 12:00 51°32.709 2°55.453 3 325 15.8 102600 39
2010-07-06 12:01 51°32.746 2°55.439 2.6 322 15.8 102600 40
2010-07-06 12:02 51°32.784 2°55.432 2.2 323 15.9 102600 40
2010-07-06 12:03 51°32.81 2°55.429 2.2 317 16 102590 40
2010-07-06 12:04 51°32.829 2°55.426 1 319 16 102600 42
2010-07-06 12:05 51°32.852 2°55.432 2.1 35 16.1 102590 40
2010-07-06 12:06 51°32.867 2°55.47 -999 254 16.1 102590 42
2010-07-06 12:07 51°32.866 2°55.496 -999 268 16.1 102600 41
2010-07-06 12:08 51°32.86 2°55.518 -999 268 16.2 102600 40
2010-07-06 12:09 51°32.851 2°55.549 -999 36 16.2 102600 41
2010-07-06 12:10 51°32.836 2°55.589 -999 36 16.3 102600 41
2010-07-06 12:11 51°32.819 2°55.62 -999 36 16.4 102600 41
2010-07-06 12:12 51°32.804 2°55.639 -999 37 16.5 102600 41
2010-07-06 12:13 51°32.79 2°55.655 -999 37 16.6 102600 41
2010-07-06 12:14 51°32.776 2°55.671 -999 36 16.8 102600 41
2010-07-06 12:15 51°32.764 2°55.687 -999 36 16.9 102600 41
2010-07-06 12:16 51°32.753 2°55.702 -999 36 16.9 102600 39
2010-07-06 12:17 51°32.741 2°55.718 -999 36 16.7 102600 41
2010-07-06 12:18 51°32.731 2°55.732 -999 36 16.4 102600 41
2010-07-06 12:19 51°32.718 2°55.745 -999 36 16.3 102600 41
2010-07-06 12:20 51°32.708 2°55.757 0.1 36 16.2 102600 41
2010-07-06 12:21 51°32.694 2°55.786 -999 36 16.1 102600 41
2010-07-06 12:22 51°32.648 2°55.837 -999 14 16.2 102600 42
2010-07-06 12:23 51°32.51 2°55.855 4.3 341 16.2 102600 41
2010-07-06 12:24 51°32.29 2°55.839 5.5 342 16 102590 40
2010-07-06 12:25 51°32.066 2°55.82 4.9 340 16 102590 43
2010-07-06 12:26 51°31.842 2°55.773 4.4 342 16 102590 42
2010-07-06 12:27 51°31.614 2°55.726 6 337 16.1 102590 42
2010-07-06 12:28 51°31.388 2°55.684 4.7 338 16.1 102590 43
2010-07-06 12:29 51°31.162 2°55.639 5 339 16.2 102590 43
2010-07-06 12:30 51°30.937 2°55.592 5.2 344 16.1 102580 43
2010-07-06 12:31 51°30.711 2°55.545 5.8 341 16.1 102590 43
2010-07-06 12:32 51°30.483 2°55.498 5.7 337 16.1 102590 41
2010-07-06 12:33 51°30.255 2°55.452 5.8 337 16.2 102590 42
2010-07-06 12:34 51°30.027 2°55.405 5.3 336 16.1 102580 41
2010-07-06 12:35 51°29.798 2°55.359 5.9 340 16.1 102590 42
2010-07-06 12:36 51°29.57 2°55.312 5.2 337 16.1 102580 41
2010-07-06 12:37 51°29.343 2°55.267 5.3 338 16.2 102590 41
2010-07-06 12:38 51°29.115 2°55.218 5.7 339 16.2 102590 41
2010-07-06 12:39 51°28.89 2°55.169 6.4 341 16.2 102590 41
2010-07-06 12:40 51°28.663 2°55.121 4.7 343 16.3 102590 40
2010-07-06 12:41 51°28.436 2°55.069 6.7 342 16.3 102590 41
2010-07-06 12:42 51°28.209 2°55.015 5.8 339 16.3 102600 42
2010-07-06 12:43 51°27.982 2°54.961 6 342 16.3 102600 43
2010-07-06 12:44 51°27.756 2°54.891 5.9 339 16.2 102590 42
2010-07-06 12:45 51°27.529 2°54.818 6.1 338 16.2 102590 42
2010-07-06 12:46 51°27.3 2°54.746 5.3 342 16.3 102590 42
2010-07-06 12:47 51°27.069 2°54.673 6.5 343 16.3 102590 42
2010-07-06 12:48 51°26.838 2°54.604 7 341 16.2 102590 41
2010-07-06 12:49 51°26.606 2°54.528 6.7 347 16.1 102590 41
2010-07-06 12:50 51°26.375 2°54.451 7.6 341 16.1 102590 41
2010-07-06 12:51 51°26.147 2°54.374 5.5 336 16.2 102580 42
2010-07-06 12:52 51°25.918 2°54.297 5.5 341 16.2 102580 42
2010-07-06 12:53 51°25.69 2°54.222 5.9 343 16.2 102580 42
2010-07-06 12:54 51°25.462 2°54.145 5.1 342 16.2 102580 42
2010-07-06 12:55 51°25.233 2°54.071 6.9 343 16.2 102580 42
2010-07-06 12:56 51°25.003 2°53.994 6.6 344 16.2 102580 40
2010-07-06 12:57 51°24.771 2°53.916 4.9 344 16.1 102580 41
2010-07-06 12:58 51°24.539 2°53.841 6.8 340 16.1 102580 42
2010-07-06 12:59 51°24.309 2°53.763 6.5 346 16 102580 42
2010-07-06 13:00 51°24.08 2°53.684 6.1 344 16.1 102580 42
2010-07-06 13:01 51°23.852 2°53.604 5.5 344 16.1 102580 42
2010-07-06 13:02 51°23.622 2°53.524 5.6 342 16.1 102580 41
2010-07-06 13:03 51°23.393 2°53.442 5.9 344 16.1 102580 43
2010-07-06 13:04 51°23.163 2°53.358 5.3 346 16 102580 41
2010-07-06 13:05 51°22.933 2°53.276 6.3 344 15.9 102580 42
2010-07-06 13:06 51°22.705 2°53.19 6.6 340 15.9 102580 42
2010-07-06 13:07 51°22.476 2°53.105 6.5 344 16 102580 42
2010-07-06 13:08 51°22.245 2°53.03 5.2 347 15.9 102580 42
2010-07-06 13:09 51°22.013 2°53.025 5 347 15.8 102580 42
2010-07-06 13:10 51°21.785 2°53.019 5.3 342 15.7 102580 41
2010-07-06 13:11 51°21.556 2°53.005 5.3 346 15.8 102580 42
2010-07-06 13:12 51°21.327 2°52.98 6.1 344 15.8 102580 41
2010-07-06 13:13 51°21.097 2°52.928 6.2 344 15.8 102580 42
2010-07-06 13:14 51°20.867 2°52.872 6.8 344 15.9 102580 43
2010-07-06 13:15 51°20.634 2°52.814 6.2 344 15.9 102580 42
2010-07-06 13:16 51°20.4 2°52.775 5.7 346 15.9 102580 43
2010-07-06 13:17 51°20.166 2°52.738 5.1 348 15.8 102570 42
2010-07-06 13:18 51°19.933 2°52.703 6.9 348 15.8 102580 43
2010-07-06 13:19 51°19.7 2°52.665 5.8 347 15.7 102570 41
2010-07-06 13:20 51°19.467 2°52.649 4.5 345 15.7 102580 42
2010-07-06 13:21 51°19.234 2°52.638 4.9 349 15.7 102570 43
2010-07-06 13:22 51°19.001 2°52.624 5.4 348 15.7 102570 42
2010-07-06 13:23 51°18.769 2°52.614 4.3 347 15.7 102580 41
2010-07-06 13:24 51°18.536 2°52.601 5 351 15.7 102570 41
2010-07-06 13:25 51°18.303 2°52.587 4.6 349 15.8 102570 43
2010-07-06 13:26 51°18.07 2°52.586 5.3 346 15.7 102580 41
2010-07-06 13:27 51°17.837 2°52.601 4.4 346 15.7 102580 42
2010-07-06 13:28 51°17.604 2°52.629 3.9 348 15.8 102580 42
2010-07-06 13:29 51°17.375 2°52.692 4 345 15.9 102570 43
2010-07-06 13:30 51°17.151 2°52.776 3.7 345 15.9 102570 41
2010-07-06 13:31 51°16.932 2°52.888 4.2 343 15.9 102570 41
2010-07-06 13:32 51°16.714 2°53 4.1 344 16 102570 43
2010-07-06 13:33 51°16.491 2°53.111 3.7 348 16 102570 41
2010-07-06 13:34 51°16.274 2°53.226 5 344 16 102570 42
2010-07-06 13:35 51°16.063 2°53.359 3.6 343 16.1 102570 43
2010-07-06 13:36 51°15.853 2°53.49 3.5 346 16.1 102560 40
2010-07-06 13:37 51°15.644 2°53.621 2.8 343 16.1 102570 41
2010-07-06 13:38 51°15.445 2°53.779 1.8 333 16.1 102570 43
2010-07-06 13:39 51°15.27 2°53.985 3.6 340 16.2 102570 43
2010-07-06 13:40 51°15.1 2°54.2 2.1 340 16.4 102570 40
2010-07-06 13:41 51°14.938 2°54.427 2.6 335 16.4 102570 41
2010-07-06 13:42 51°14.763 2°54.652 2.7 332 16.5 102570 40
2010-07-06 13:43 51°14.61 2°54.853 0.8 326 16.6 102570 41
2010-07-06 13:44 51°14.469 2°55.036 0.9 324 16.7 102570 40
2010-07-06 13:45 51°14.322 2°55.212 1.3 341 16.7 102570 41
2010-07-06 13:46 51°14.196 2°55.349 0.9 358 16.8 102570 41
2010-07-06 13:47 51°14.08 2°55.44 -999 347 16.7 102570 41
2010-07-06 13:48 51°13.969 2°55.52 -999 13 16.7 102570 42
2010-07-06 13:49 51°13.872 2°55.59 -999 7 16.8 102570 42
2010-07-06 13:50 51°13.792 2°55.656 -999 36 17 102570 42
2010-07-06 13:51 51°13.73 2°55.743 -999 266 17.3 102570 43
2010-07-06 13:52 51°13.687 2°55.847 1.8 36 17.3 102570 41
2010-07-06 13:53 51°13.666 2°55.937 0.2 263 17.3 102570 42
2010-07-06 13:54 51°13.662 2°55.959 3.3 38 17.3 102570 41